Lockhart, AL

9:53 PM CST on February 12, 2016 (GMT -0600)
Florala

Weather History for K0J4 - November, 2012

Change the Weather History Date:

Wednesday, November 14, 2012

  Actual Average (KCEW) Record (KCEW)
Temperature  
Mean Temperature 48 °F -  
Max Temperature 57 °F 69 °F 84 °F (2008)
Min Temperature 39 °F 41 °F 27 °F (1977)
Degree Days  
Heating Degree Days 17    
Moisture  
Dew Point 48 °F    
Average Humidity 88    
Maximum Humidity 96    
Minimum Humidity 65    
Precipitation  
Precipitation 0.01 in - - ()
Sea Level Pressure  
Sea Level Pressure 30.24 in    
Wind  
Wind Speed 5 mph (NNE)    
Max Wind Speed 9 mph    
Max Gust Speed -    
Visibility 6 miles    
Events Rain    
Averages and records for this station are not official NWS values.
T = Trace of Precipitation, MM = Missing Value Source: NWS Daily Summary

Daily Weather History Graph

Daily Weather History Graph

Search for Another Location

Airport or City:

Trip Planner

Search our weather history database for the weather conditions in past years. The results will help you decide how hot, cold, wet, or windy it might be!

Date:

Astronomy

Nov. 14, 2012 Rise Set
Actual Time 6:11 AM CST 4:47 PM CST
Civil Twilight 5:46 AM CST 5:13 PM CST
Nautical Twilight 5:16 AM CST 5:42 PM CST
Astronomical Twilight 4:48 AM CST 6:10 PM CST
Moon 6:56 AM CST (11/14) 5:39 PM CST (11/14)
Length of Visible Light 11h 26m
Length of Day
10h 35m
New Moon, 1% of the Moon is Illuminated
Nov 14
New Moon
Nov 20
First Quarter
Nov 28
Full
Dec 6
Last Quarter
Dec 13
New

Hourly Weather History & Observations

Time (CST) Temp. Windchill Dew Point Humidity Pressure Visibility Wind Dir Wind Speed Gust Speed Precip Events Conditions
12:58 AM 43.0 °F 40.3 °F 32.0 °F 65% 30.24 in 10.0 mi North 4.6 mph - N/A   Clear
1:58 AM 39.0 °F 35.7 °F 33.1 °F 79% 30.24 in 10.0 mi North 4.6 mph - N/A   Clear
2:58 AM 41.0 °F 38.0 °F 32.0 °F 70% 30.24 in - North 4.6 mph - N/A   Clear
3:58 AM 39.0 °F 35.7 °F 33.1 °F 79% 30.24 in - North 4.6 mph - N/A   Partly Cloudy
4:05 AM 41.0 °F 38.0 °F 33.8 °F 76% 30.24 in - NNE 4.6 mph - N/A   Partly Cloudy
4:14 AM 41.0 °F 38.0 °F 33.8 °F 76% 30.24 in - NNE 4.6 mph - N/A   Mostly Cloudy
4:58 AM 41.0 °F 39.0 °F 35.1 °F 79% 30.24 in - NNE 3.5 mph - N/A   Overcast
5:58 AM 43.0 °F 39.5 °F 37.0 °F 80% 30.25 in - NNE 5.8 mph - N/A   Overcast
6:05 AM 42.8 °F 39.3 °F 37.4 °F 81% 30.25 in - NNE 5.8 mph - N/A   Overcast
6:58 AM 44.1 °F 42.5 °F 39.9 °F 85% 30.26 in - NNE 3.5 mph - N/A   Overcast
7:58 AM 46.9 °F - 44.1 °F 90% 30.28 in - North 5.8 mph - N/A   Overcast
8:27 AM 46.4 °F 45.2 °F 44.6 °F 93% 30.28 in - NNW 3.5 mph - N/A   Overcast
8:58 AM 51.1 °F - 46.0 °F 83% 30.27 in - NNE 5.8 mph - N/A   Overcast
9:46 AM 55.4 °F - 48.2 °F 77% 30.27 in - NE 8.1 mph - N/A   Overcast
9:58 AM 55.9 °F - 48.9 °F 77% 30.27 in 10.0 mi NE 6.9 mph - N/A   Overcast
10:58 AM 57.9 °F - 50.0 °F 75% 30.26 in 10.0 mi Variable 5.8 mph - N/A   Overcast
11:58 AM 57.0 °F - 51.1 °F 81% 30.24 in 10.0 mi East 3.5 mph - 0.00 in Rain Light Rain
12:58 PM 57.0 °F - 54.0 °F 89% 30.24 in 10.0 mi Calm Calm - 0.01 in Rain Light Rain
1:43 PM 55.4 °F - 53.6 °F 94% 30.23 in 2.0 mi NE 3.5 mph - 0.00 in Rain Light Rain
1:56 PM 57.2 °F - 53.6 °F 88% 30.22 in 3.0 mi NNE 5.8 mph - 0.00 in   Overcast
1:58 PM 55.9 °F - 54.0 °F 93% 30.22 in 3.0 mi NNE 6.9 mph - 0.00 in   Overcast
2:17 PM 55.4 °F - 53.6 °F 94% 30.22 in 5.0 mi NE 6.9 mph - N/A   Overcast
2:36 PM 55.4 °F - 53.6 °F 94% 30.22 in 4.0 mi NNE 5.8 mph - N/A   Overcast
2:58 PM 55.9 °F - 54.0 °F 93% 30.22 in 4.0 mi NNE 5.8 mph - N/A   Overcast
3:58 PM 55.0 °F - 52.0 °F 89% 30.23 in 7.0 mi NNE 6.9 mph - N/A   Overcast
4:15 PM 55.4 °F - 51.8 °F 88% 30.23 in 8.0 mi NNE 5.8 mph - N/A   Overcast
4:20 PM 55.4 °F - 51.8 °F 88% 30.23 in 7.0 mi NNE 4.6 mph - N/A   Overcast
4:58 PM 54.0 °F - 52.0 °F 93% 30.24 in 7.0 mi NNE 5.8 mph - N/A   Overcast
5:22 PM 53.6 °F - 51.8 °F 94% 30.24 in 8.0 mi NNE 5.8 mph - N/A   Overcast
5:29 PM 53.6 °F - 51.8 °F 94% 30.24 in 8.0 mi NNE 6.9 mph - N/A   Overcast
5:36 PM 53.6 °F - 51.8 °F 94% 30.24 in 6.0 mi NNE 8.1 mph - N/A   Overcast
5:40 PM 53.6 °F - 51.8 °F 94% 30.24 in 6.0 mi NNE 5.8 mph - N/A   Overcast
5:58 PM 54.0 °F - 52.0 °F 93% 30.25 in 6.0 mi NNE 5.8 mph - N/A   Overcast
6:04 PM 53.6 °F - 51.8 °F 94% 30.24 in 5.0 mi NNE 6.9 mph - N/A   Overcast
6:30 PM 53.6 °F - 51.8 °F 94% 30.25 in 7.0 mi NE 5.8 mph - N/A   Overcast
6:58 PM 54.0 °F - 51.1 °F 90% 30.25 in 8.0 mi NE 9.2 mph - N/A   Overcast
7:45 PM 53.6 °F - 51.8 °F 94% 30.25 in 3.0 mi NE 6.9 mph - N/A   Overcast
7:58 PM 53.1 °F - 52.0 °F 96% 30.26 in 2.5 mi NNE 6.9 mph - N/A   Overcast
8:42 PM 53.6 °F - 51.8 °F 94% 30.26 in 3.0 mi NE 5.8 mph - N/A   Overcast
8:58 PM 53.1 °F - 51.1 °F 93% 30.25 in 4.0 mi NE 5.8 mph - N/A   Overcast
9:17 PM 53.6 °F - 51.8 °F 94% 30.25 in 2.5 mi NNE 6.9 mph - N/A   Overcast
9:23 PM 53.6 °F - 51.8 °F 94% 30.25 in 3.0 mi NE 5.8 mph - N/A   Overcast
9:58 PM 53.1 °F - 51.1 °F 93% 30.25 in 3.0 mi Variable 5.8 mph - N/A   Overcast
10:58 PM 53.1 °F - 51.1 °F 93% 30.24 in 6.0 mi NE 4.6 mph - N/A   Overcast
11:58 PM 52.0 °F - 50.0 °F 93% 30.23 in 7.0 mi NE 4.6 mph - N/A   Overcast